Lapse_Rate
9.3 9.0 5.8 6.0 5.9 5.8 5.6 5.6 5.5 5.4 5.5 5.6 5.8 5.7 5.6 5.5 5.4 5.2 5.2 5.3 5.3 5.5 5.8 6.0 6.1 6.1 5.9 5.8 5.8 5.8 5.3 5.0 5.1 5.3 4.8 4.8 5.4 5.8 5.5 5.1 4.9 9.2 5.2
9.6 9.2 5.8 5.9 5.8 5.8 5.5 5.4 5.3 5.3 5.4 5.5 5.8 5.9 5.9 5.8 5.8 5.7 5.6 5.5 5.7 6.0 6.1 6.3 5.9 5.7 5.5 5.2 5.0 5.2 5.3 5.0 4.7 4.3 4.7 4.9 5.3 5.6 5.7 5.2 5.1 6.4 5.2
9.6 8.9 7.7 5.8 5.7 5.7 5.5 5.4 5.4 5.4 5.5 5.6 5.8 5.9 6.0 6.0 6.0 6.0 6.0 6.0 5.8 5.8 5.9 6.1 6.6 6.1 5.8 5.7 5.5 5.2 4.9 4.7 4.4 4.1 4.1 8.0 9.3 5.7 6.0 5.8 5.5 5.4 5.3
9.3 8.9 8.3 5.7 5.8 5.6 5.4 5.4 5.4 5.3 5.4 5.3 5.5 5.8 5.8 5.9 6.0 5.9 5.9 6.0 6.1 6.0 5.8 5.9 6.4 6.4 5.9 5.7 5.6 5.6 5.6 5.1 4.5 4.2 7.3 9.5 9.5 6.6 5.6 6.0 6.3 6.3 5.9
8.5 7.3 5.8 5.4 5.3 5.1 5.1 5.1 5.2 5.2 5.3 5.4 5.5 5.5 5.6 5.6 5.6 5.4 5.3 5.2 5.2 5.3 5.6 5.8 5.9 5.8 5.6 5.5 5.6 5.8 5.8 5.7 5.1 4.8 9.0 8.3 7.5 8.3 5.4 6.0 6.7 6.7 6.6
7.3 6.8 5.4 5.2 5.0 4.8 4.8 5.1 4.9 5.0 4.8 4.9 5.0 4.9 5.0 5.0 5.0 4.8 4.6 4.7 4.9 4.9 5.1 5.4 5.5 5.8 5.9 5.7 5.6 5.7 6.0 5.8 5.1 9.1 9.1 8.7 6.3 7.1 5.4 5.6 6.2 7.0 6.6
6.7 7.0 5.6 4.6 4.7 4.6 4.5 4.5 4.5 4.3 4.2 4.1 4.0 4.0 4.0 4.0 4.0 3.9 3.8 4.0 4.3 4.5 4.6 4.8 5.2 5.4 5.5 5.8 6.0 6.0 5.9 5.7 6.5 8.9 9.4 8.4 7.6 5.7 5.2 5.9 6.1 6.4 6.7
6.6 5.9 5.3 3.7 3.8 3.9 3.8 3.5 3.3 3.1 2.8 2.8 2.7 2.6 2.5 2.5 2.7 2.6 2.5 2.9 3.2 3.6 3.8 4.0 4.3 4.6 4.9 5.2 5.5 5.6 5.7 5.7 7.2 8.9 9.1 9.3 7.7 5.5 5.1 5.4 5.9 6.4 6.8
5.9 5.9 5.6 5.1 3.4 2.3 1.9 1.8 1.7 1.7 1.7 1.6 1.5 1.3 1.1 1.3 1.6 1.8 2.0 2.1 2.5 2.6 2.7 2.9 3.2 3.5 3.6 4.1 4.5 4.7 4.8 5.4 6.9 8.7 8.5 9.2 7.9 5.5 5.8 6.0 5.8 6.3 6.8
5.1 5.5 5.2 4.6 4.3 3.8 3.5 0.4 0.5 0.5 0.5 0.8 0.6 0.4 0.7 2.0 1.8 1.3 1.6 1.1 1.6 1.6 1.9 2.3 2.5 2.6 2.5 2.8 3.2 3.4 3.6 4.6 7.2 8.5 8.5 8.6 6.5 5.9 6.0 6.1 6.4 6.5 6.4
4.7 4.6 4.1 4.0 3.6 3.9 3.2 1.1 1.3 0.5 0.7 1.7 1.9 0.8 3.2 3.7 3.4 3.3 0.1 0.1 0.8 1.1 1.4 1.8 2.0 2.1 2.1 3.2 3.7 3.2 3.9 9.1 9.6 9.1 8.8 7.9 5.9 5.8 6.1 6.3 6.4 6.4 6.7
4.9 3.7 3.4 3.0 3.1 3.3 3.1 3.2 2.9 2.8 3.0 3.2 3.3 3.3 3.9 3.6 2.4 2.4 1.8 0.9 1.5 0.9 2.1 2.3 2.4 2.9 4.2 6.1 6.8 6.1 9.2 9.5 9.5 9.6 9.5 5.5 5.2 5.8 6.3 6.1 6.1 6.0 6.2
4.3 3.7 3.1 2.7 2.4 3.2 3.0 3.3 3.6 3.5 3.7 3.7 3.3 3.6 3.8 4.1 3.9 4.1 4.2 4.0 4.0 3.3 4.5 4.4 4.9 5.3 5.3 5.6 6.2 7.0 7.6 8.8 9.6 9.7 8.9 5.2 5.3 5.8 6.5 6.5 6.5 6.5 6.6
4.2 3.5 3.0 2.6 2.7 2.3 2.7 3.2 3.1 3.5 3.7 4.0 3.4 3.4 3.9 4.5 4.4 4.5 4.5 4.1 4.1 4.1 4.6 4.9 5.3 5.5 5.7 6.1 6.3 6.7 7.8 8.9 9.5 9.6 9.3 5.3 4.7 5.7 6.3 6.6 6.9 7.1 7.2
4.6 3.6 3.1 2.8 2.9 2.5 2.7 2.9 3.4 3.9 4.1 3.7 3.4 3.1 3.4 4.2 4.4 4.2 4.3 4.4 4.3 4.3 4.8 5.3 5.6 6.1 6.3 6.3 6.6 6.9 7.3 7.9 8.5 9.4 9.5 5.7 4.6 5.1 5.8 6.3 6.7 7.0 7.1
4.7 4.0 3.1 3.0 2.8 2.4 2.9 3.1 3.7 4.0 3.5 3.6 3.5 3.1 3.0 3.5 3.8 4.1 4.7 4.6 4.7 4.5 4.9 5.3 5.9 6.4 7.1 7.2 7.2 7.3 7.7 8.9 8.9 9.2 9.5 9.3 4.9 5.5 6.2 6.6 6.7 6.8 7.0
5.2 3.8 3.5 3.1 2.6 3.2 3.1 3.5 3.7 3.5 3.7 3.9 3.5 2.9 3.1 3.3 3.9 4.1 4.7 5.0 4.7 4.6 4.9 5.4 5.7 5.9 7.5 8.3 8.2 7.9 7.9 8.9 8.8 9.0 9.0 8.8 8.4 4.8 5.1 5.5 5.8 6.2 6.3
4.8 4.2 3.7 3.5 3.2 3.6 3.5 3.5 4.1 3.7 4.0 4.1 4.0 4.0 3.6 3.6 3.5 4.4 4.7 4.9 4.6 4.9 5.0 5.6 5.9 6.1 6.9 8.0 8.4 9.5 9.0 8.7 9.0 9.4 9.2 9.2 8.0 5.2 4.4 3.6 3.8 4.2 4.9
5.4 4.7 4.2 3.8 4.2 4.4 3.9 3.8 3.6 3.5 4.4 4.3 4.5 4.6 3.8 3.8 3.8 4.3 4.3 4.3 4.5 4.9 5.5 5.7 6.2 6.4 7.4 7.6 8.6 9.6 9.6 9.6 9.5 9.6 9.6 8.8 7.3 7.2 6.6 4.5 3.7 2.7 3.1
5.0 4.9 4.6 4.2 4.3 4.5 4.0 3.9 4.3 4.5 4.6 4.6 4.8 4.6 4.1 4.4 4.0 4.4 4.7 4.4 4.4 5.3 5.6 6.0 6.3 6.9 7.7 6.7 9.0 9.4 9.6 9.8 10.0 8.9 7.6 6.7 5.1 4.3 3.7 3.5 3.4 3.6 2.6
4.0 4.1 4.5 4.7 4.5 4.6 5.2 5.8 5.6 6.2 5.5 5.3 4.7 4.0 4.0 4.1 4.1 4.3 4.7 4.8 4.8 5.4 5.3 5.5 5.8 6.4 8.0 6.4 9.1 9.2 9.2 8.9 8.1 7.3 6.9 7.0 6.5 5.7 5.0 4.8 4.8 4.8 4.8
4.5 4.4 4.6 4.9 4.7 4.9 5.1 5.2 5.1 5.3 5.3 5.0 4.4 4.2 4.1 4.1 3.9 4.4 4.6 4.9 4.6 5.2 5.4 5.4 5.4 5.7 7.3 7.7 8.6 8.8 8.2 8.8 8.9 8.6 9.5 9.3 9.4 8.9 7.0 5.5 5.1 4.5 4.5
4.5 4.6 5.2 5.0 4.8 4.8 4.4 4.3 4.3 4.3 4.4 5.1 5.3 5.4 4.7 4.1 3.8 3.6 4.1 4.5 4.6 4.7 5.0 4.8 4.9 5.0 5.5 7.7 7.1 8.3 8.0 7.7 8.6 9.3 9.2 9.6 9.7 9.7 9.5 6.9 5.5 4.9 5.1
4.7 5.0 5.1 4.7 4.7 4.4 4.2 4.7 5.4 6.0 6.4 6.4 5.9 5.7 5.3 4.2 4.3 3.7 3.6 4.0 4.2 4.4 4.7 4.7 4.9 4.7 5.2 6.2 7.3 8.4 8.7 9.1 8.2 8.0 9.1 9.3 9.6 9.3 8.1 7.2 6.2 5.2 4.9
4.7 4.2 4.4 4.7 4.6 4.5 4.4 4.6 5.2 5.6 6.0 5.8 5.6 5.5 5.8 5.1 4.2 4.2 3.9 4.3 4.6 4.6 4.7 4.4 4.5 4.9 5.1 5.6 6.6 7.0 8.8 9.2 9.2 8.6 8.1 8.6 9.4 9.6 9.4 7.9 6.9 6.6 5.7
3.4 3.8 4.3 4.5 4.6 4.5 4.4 4.7 4.8 5.3 5.7 5.6 5.9 5.8 6.1 6.0 5.4 4.6 4.0 4.3 4.4 4.6 4.6 4.6 4.3 4.3 4.7 5.1 5.6 6.1 7.6 8.6 8.1 8.7 8.5 8.6 8.7 9.2 9.6 8.8 7.5 6.5 5.7
Wind_Speed
7 10 9 10 9 9 10 10 10 9 9 8 7 6 6 6 6 5 4 4 3 3 4 4 5 5 5 5 6 6 5 5 5 4 4 4 4 5 5 4 4 4 5
12 10 9 11 10 9 10 9 9 8 7 7 6 6 5 5 5 4 3 3 3 4 5 5 2 3 3 3 4 4 4 3 3 3 2 3 2 2 2 2 4 5 3
10 11 11 10 11 10 9 8 7 7 6 6 5 5 4 3 2 2 2 2 3 4 4 5 1 1 1 1 3 3 2 2 2 3 5 8 4 1 4 3 3 4 4
10 10 11 10 9 10 9 10 10 11 11 11 10 11 9 8 9 8 5 3 3 5 6 7 7 3 4 4 4 4 4 3 3 4 9 6 7 1 5 8 5 5 5
11 13 16 16 14 14 13 13 12 11 11 11 11 11 11 11 11 11 10 9 8 7 7 8 8 7 6 7 8 7 6 6 5 8 7 7 8 5 5 8 10 10 7
13 15 17 16 15 14 13 12 12 12 12 12 11 11 11 11 11 11 11 11 11 11 10 9 9 10 9 9 9 10 10 8 8 10 7 7 8 7 8 10 11 9 8
10 13 15 15 14 14 14 13 12 12 12 12 12 11 11 11 11 11 12 12 13 12 12 13 12 12 11 9 11 11 11 10 12 11 9 9 9 7 10 11 11 9 12
10 10 12 14 14 14 13 12 12 12 12 12 12 12 12 12 11 12 13 13 13 13 13 13 13 12 13 12 12 12 11 11 13 14 11 10 7 9 11 12 13 12 9
9 8 8 9 10 14 14 12 12 12 12 12 12 12 12 12 12 12 12 14 13 13 13 13 12 12 13 13 12 12 12 12 14 14 12 11 6 9 12 13 13 14 13
8 7 8 8 8 8 8 12 12 12 12 12 12 12 10 7 10 11 12 13 12 12 12 12 12 12 12 13 12 12 12 13 16 15 13 13 4 11 15 15 14 14 15
7 6 6 7 7 7 7 8 7 10 8 8 8 9 6 8 9 9 10 11 12 13 12 12 12 12 12 11 8 10 13 13 12 11 13 5 6 13 17 17 17 17 17
7 6 6 6 6 6 6 6 7 7 8 9 8 8 8 8 8 8 6 8 7 11 8 11 10 9 9 9 10 10 10 11 12 12 11 10 10 13 14 14 13 15 17
7 5 5 5 6 5 6 5 5 5 6 6 8 8 7 7 7 7 7 9 9 10 10 10 10 9 10 9 9 9 10 11 10 9 8 9 11 12 13 11 10 11 12
7 6 4 5 5 5 5 5 6 5 5 5 7 8 8 6 6 7 7 8 9 10 10 10 9 10 10 10 9 9 9 9 9 9 7 7 11 11 10 9 9 9 10
7 6 4 4 4 5 5 5 5 4 5 5 6 8 8 6 6 7 7 8 8 10 10 10 10 9 9 9 10 9 8 8 8 7 8 8 10 9 8 8 8 9 10
7 6 5 4 5 5 5 5 3 4 4 5 5 6 7 7 7 6 6 7 8 9 10 10 9 8 7 8 7 9 8 7 7 6 5 2 14 12 10 9 9 9 8
6 6 5 5 4 4 4 3 3 3 3 4 4 5 6 7 7 7 7 7 9 10 11 10 10 9 6 7 8 6 7 7 6 5 5 5 5 15 17 16 14 13 12
7 7 6 4 4 4 3 2 2 3 3 3 3 4 5 6 7 6 6 6 10 9 9 8 7 7 6 7 7 6 5 4 3 5 5 6 8 6 12 17 20 22 21
8 7 6 5 4 3 3 2 1 2 1 2 2 3 4 5 6 6 6 6 8 7 7 6 6 7 6 7 6 5 5 5 5 6 8 10 11 11 9 9 13 20 21
7 7 6 5 4 3 2 1 1 2 1 1 1 2 2 3 5 6 5 5 6 5 5 6 8 7 6 7 5 3 4 4 5 7 7 10 10 10 10 10 9 8 12
8 8 7 6 5 3 3 2 2 2 2 2 1 1 2 2 4 4 4 5 6 5 6 7 7 7 6 8 5 2 2 5 5 4 5 4 5 6 8 9 10 10 10
9 9 8 7 6 4 3 1 1 1 1 2 3 3 2 3 3 3 4 4 5 4 6 7 8 6 5 7 6 4 3 4 3 2 3 4 5 5 6 9 10 11 11
11 10 9 7 6 5 4 2 2 2 3 3 3 3 3 4 4 3 4 4 3 4 4 5 6 7 5 5 6 3 3 3 7 2 2 4 6 5 5 6 9 11 11
11 9 8 7 6 5 5 4 4 3 4 2 3 3 4 6 5 5 5 4 3 3 3 3 4 5 5 6 4 3 4 5 3 4 2 2 2 4 3 3 5 8 10
9 9 8 7 6 5 5 4 3 5 4 4 4 6 6 6 8 7 7 6 4 3 2 3 3 3 3 5 4 5 6 5 6 5 7 4 5 0 2 3 5 7 9
7 9 7 7 6 6 5 5 6 7 7 6 6 6 5 5 5 9 9 8 6 5 4 3 3 3 4 4 4 5 4 3 4 4 6 6 7 4 3 2 3 6 7
Wind_Direction
150 138 152 136 110 98 98 96 93 90 88 88 85 80 71 63 61 64 64 60 55 36 28 31 36 40 42 44 42 37 39 46 55 72 74 62 53 73 61 50 322 47 30
136 142 145 122 113 106 101 98 95 91 86 80 70 64 59 54 51 51 46 41 27 12 2 317 72 43 34 28 27 20 18 14 20 26 357 214 126 47 45 26 337 28 3
131 132 142 124 117 112 105 97 90 82 73 65 56 48 35 26 19 26 33 14 351 343 344 349 53 39 346 339 339 334 331 333 320 307 296 274 281 11 321 317 309 304 309
131 128 119 116 114 106 96 83 74 68 61 57 52 45 34 27 28 21 7 349 341 334 325 318 327 305 287 289 290 289 287 282 282 287 268 281 280 184 308 308 288 281 278
118 97 92 90 89 85 81 77 72 66 61 53 50 46 43 40 40 36 30 23 15 355 319 304 304 302 289 278 276 280 278 270 258 267 278 280 278 265 288 295 290 257 251
97 98 88 88 86 83 78 78 70 65 64 59 56 54 49 47 40 35 31 24 19 11 353 346 325 293 283 277 275 270 265 255 259 265 274 268 265 288 285 282 297 270 244
96 103 90 84 82 79 76 75 70 65 61 56 54 50 45 41 32 25 20 13 7 4 3 360 355 348 334 310 280 275 272 269 264 272 266 266 267 268 275 280 285 299 243
105 99 94 81 78 75 70 68 66 61 57 50 46 42 37 32 26 20 15 9 1 355 353 353 352 351 350 340 323 306 283 273 266 263 261 264 263 263 269 274 275 279 284
95 95 93 89 86 77 67 63 61 57 55 51 47 44 40 36 30 25 21 12 3 358 350 344 341 339 339 337 336 330 317 281 270 270 266 266 226 254 274 276 277 276 277
89 83 82 82 79 74 75 63 62 58 56 55 50 44 35 42 31 29 19 17 9 3 359 352 344 336 330 326 328 333 322 291 259 262 259 259 272 272 278 273 273 270 268
92 80 74 77 76 77 70 66 76 65 62 55 56 42 39 30 22 19 31 18 14 8 5 357 349 336 322 287 301 315 303 276 281 275 272 280 292 291 289 287 281 278 270
115 94 81 76 74 73 72 65 63 59 50 46 41 34 27 26 22 2 14 7 360 356 356 355 351 330 315 324 304 288 289 292 282 279 279 7 313 291 291 296 290 288 281
119 104 87 86 74 74 72 63 60 53 49 51 39 27 23 15 9 6 358 358 351 354 354 349 348 351 345 338 326 313 301 296 292 284 277 310 310 310 307 314 312 313 295
132 116 113 100 91 76 75 62 60 59 54 42 36 21 19 9 9 3 1 355 353 352 347 346 341 338 336 336 333 327 318 298 292 299 297 311 324 321 322 323 320 318 319
141 140 128 118 101 84 74 73 72 69 54 43 32 26 21 14 8 2 3 1 358 349 348 341 337 332 330 332 330 328 320 317 306 296 299 47 10 354 346 338 332 330 331
149 152 144 125 101 90 82 82 72 64 57 44 39 31 28 15 10 6 3 5 360 353 344 336 335 330 326 325 323 323 320 323 325 317 312 346 43 31 26 20 13 5 355
166 156 157 136 119 105 103 85 73 70 57 51 47 44 31 22 11 8 9 7 2 353 345 340 341 335 332 334 322 322 323 324 330 340 340 347 95 44 40 34 27 22 18
170 176 163 143 140 126 105 101 86 72 58 56 50 41 32 26 18 17 14 14 359 356 351 347 346 341 339 338 331 338 339 339 10 41 50 45 54 48 40 36 33 30 26
186 173 162 161 159 138 136 128 76 88 58 61 44 35 28 20 19 14 15 12 359 359 356 348 349 347 345 347 337 356 26 58 64 58 59 61 50 36 37 48 37 33 25
189 182 170 176 165 158 154 176 200 204 217 223 2 21 359 13 13 8 3 8 359 357 359 350 346 351 354 353 338 2 46 61 58 44 43 56 54 51 44 34 25 26 35
192 185 190 185 174 188 195 211 202 224 216 216 246 272 294 337 356 4 354 352 355 1 357 349 345 346 1 359 335 330 160 81 81 82 71 59 66 59 43 36 28 15 9
195 198 193 192 182 192 206 186 252 265 249 286 262 259 281 301 316 336 332 349 356 350 356 351 356 348 354 12 351 299 296 194 168 55 52 31 26 28 34 32 31 25 14
205 198 197 191 190 193 192 190 213 232 248 250 234 249 247 266 269 291 305 325 342 342 354 347 355 359 344 349 358 349 318 337 335 144 21 17 5 11 24 19 27 25 17
209 197 193 187 192 196 195 218 242 286 287 283 277 270 256 247 252 251 263 275 298 319 329 335 343 344 335 336 335 356 292 297 306 306 196 212 354 350 12 21 21 25 18
203 193 188 188 193 199 204 230 246 260 268 278 268 263 252 247 239 239 243 251 255 266 287 304 319 329 320 312 323 326 321 303 269 282 306 329 333 295 349 6 16 14 15
185 181 180 187 201 205 216 228 245 263 274 272 268 267 263 250 240 233 230 239 241 245 245 259 269 273 285 286 290 294 299 305 320 303 302 313 312 314 327 37 5 14 12